User: anonymous   Login
Location: Unspecified
(0.0000°N, 0.0000°E)
Time: 01:51:18
(UTC+02:00)
Language:

Meteor PRIRODA - Orbit

View from above orbital plane
View from above orbital plane
View from above satellite
View from above satellite

Ground track
Ground track

The orbit data is extracted from the following two-line orbital elements,

1 12585U 81065A   14295.51054167  .00006090  00000-0  32791-3 0  9339
2 12585 097.3281 282.2417 0016975 175.7682 298.8923 15.15058171815260
Epoch (UTC): 22 October 2014 12:15:10
Eccentricity: 0.0016975
inclination: 97.3281°
perigee height: 509 km
apogee height: 532 km
right ascension of ascending node: 282.2417°
argument of perigee: 175.7682°
revolutions per day: 15.15058171
mean anomaly at epoch: 298.8923°
orbit number at epoch: 81526

The dashed part of the orbit path shows where the satellite is in the earth's shadow,  

DLR